Ludington, MI

9:46 AM EDT on October 21, 2019 (GMT -0400)
Mason County

Weather History for KLDM - August, 2019

Change the Weather History Date:

Friday, August 23, 2019

  Actual Average Record
Temperature  
Mean Temperature 59 °F -  
Max Temperature 70 °F 76 °F 89 °F (1948)
Min Temperature 48 °F 55 °F 43 °F (1971)
Degree Days  
Heating Degree Days 6    
Growing Degree Days 9 (Base 50)    
Moisture  
Dew Point 51 °F    
Average Humidity 71    
Maximum Humidity 97    
Minimum Humidity 48    
Precipitation  
Precipitation 0.00 in - - ()
Sea Level Pressure  
Sea Level Pressure 30.21 in    
Wind  
Wind Speed 3 mph (NNE)    
Max Wind Speed 18 mph    
Max Gust Speed 28 mph    
Visibility 10 miles    
Events      
Averages and records for this station are not official NWS values.
T = Trace of Precipitation, MM = Missing Value Source: NWS Daily Summary

Daily Weather History Graph

Daily Weather History Graph

Search for Another Location

Airport or City:

Astronomy

Aug. 23, 2019 Rise Set
Actual Time 6:58 AM EDT 8:37 PM EDT
Civil Twilight 6:27 AM EDT 9:07 PM EDT
Nautical Twilight 5:50 AM EDT 9:44 PM EDT
Astronomical Twilight 5:11 AM EDT 10:24 PM EDT
Moon 12:14 AM EDT (8/23) 2:50 PM EDT (8/23)
Length of Visible Light 14h 39m
Length of Day
13h 38m
Waning Gibbous, 50% of the Moon is Illuminated
Aug 23
Waning Gibbous
Aug 30
New
Sep 5
First Quarter
Sep 14
Full
Sep 21
Last Quarter

Hourly Weather History & Observations

Time (EDT) Temp. Dew Point Humidity Pressure Visibility Wind Dir Wind Speed Gust Speed Precip Events Conditions
12:17 AM 58.5 °F 49.5 °F 72% 30.13 in 10.0 mi North 3.5 mph - N/A   Overcast
12:35 AM 58.5 °F 49.3 °F 72% 30.13 in 10.0 mi Calm Calm - N/A   Overcast
12:36 AM 58.5 °F 49.3 °F 72% 30.13 in 10.0 mi Calm Calm - N/A   Overcast
12:55 AM 58.1 °F 49.6 °F 73% 30.13 in 10.0 mi Calm Calm - N/A   Overcast
1:15 AM 57.9 °F 49.8 °F 74% 30.14 in 10.0 mi Calm Calm - N/A   Overcast
1:38 AM 56.7 °F 50.9 °F 81% 30.14 in 10.0 mi Calm Calm - N/A   Overcast
1:56 AM 56.5 °F 50.0 °F 79% 30.14 in 10.0 mi Calm Calm - N/A   Overcast
2:15 AM 55.4 °F 49.6 °F 81% 30.14 in 10.0 mi NE 3.5 mph - N/A   Scattered Clouds
2:16 AM 55.4 °F 49.6 °F 81% 30.14 in 10.0 mi Calm Calm - N/A   Scattered Clouds
2:35 AM 54.0 °F 49.6 °F 85% 30.14 in 10.0 mi ENE 3.5 mph - N/A   Clear
2:59 AM 52.7 °F 48.6 °F 86% 30.15 in 10.0 mi Calm Calm - N/A   Clear
3:17 AM 52.9 °F 49.3 °F 88% 30.14 in 10.0 mi Calm Calm - N/A   Clear
3:35 AM 51.8 °F 48.2 °F 88% 30.15 in 10.0 mi Calm Calm - N/A   Clear
3:36 AM 51.6 °F 48.2 °F 88% 30.15 in 10.0 mi Calm Calm - N/A   Clear
3:55 AM 51.8 °F 49.1 °F 90% 30.15 in 10.0 mi Calm Calm - N/A   Clear
4:15 AM 51.4 °F 49.1 °F 92% 30.17 in 10.0 mi Calm Calm - N/A   Scattered Clouds
4:38 AM 50.4 °F 49.5 °F 97% 30.17 in 10.0 mi Calm Calm - N/A   Overcast
4:55 AM 51.4 °F 50.0 °F 95% 30.18 in 10.0 mi Calm Calm - N/A   Overcast
5:15 AM 52.7 °F 49.1 °F 88% 30.18 in 10.0 mi Calm Calm - N/A   Scattered Clouds
5:35 AM 50.2 °F 48.6 °F 94% 30.19 in 10.0 mi Calm Calm - N/A   Clear
5:59 AM 50.0 °F 49.3 °F 97% 30.19 in 10.0 mi Calm Calm - N/A   Clear
6:17 AM 48.9 °F 48.2 °F 97% 30.19 in 10.0 mi Calm Calm - N/A   Scattered Clouds
6:35 AM 48.2 °F 47.5 °F 97% 30.20 in 10.0 mi Calm Calm - N/A   Scattered Clouds
6:36 AM 48.2 °F 47.5 °F 97% 30.20 in 10.0 mi Calm Calm - N/A   Mostly Cloudy
6:55 AM 48.4 °F 47.7 °F 97% 30.20 in 10.0 mi Calm Calm - N/A   Scattered Clouds
7:15 AM 50.2 °F 48.7 °F 95% 30.20 in 10.0 mi Calm Calm - N/A   Clear
7:38 AM 49.1 °F 48.0 °F 96% 30.20 in 10.0 mi Calm Calm - N/A   Clear
7:55 AM 50.5 °F 49.5 °F 96% 30.20 in 10.0 mi Calm Calm - N/A   Clear
8:15 AM 52.9 °F 50.5 °F 92% 30.21 in 10.0 mi Calm Calm - N/A   Clear
8:16 AM 52.9 °F 50.5 °F 92% 30.21 in 10.0 mi Calm Calm - N/A   Clear
8:35 AM 54.9 °F 51.3 °F 88% 30.22 in 10.0 mi Calm Calm - N/A   Clear
8:59 AM 58.1 °F 52.7 °F 82% 30.22 in 10.0 mi Calm Calm - N/A   Clear
9:17 AM 59.4 °F 52.0 °F 77% 30.22 in 10.0 mi Calm Calm - N/A   Clear
9:35 AM 61.5 °F 52.7 °F 73% 30.23 in 10.0 mi NNE 4.6 mph - N/A   Clear
9:55 AM 63.0 °F 52.5 °F 69% 30.23 in 10.0 mi Calm Calm - N/A   Clear
9:56 AM 63.1 °F 52.5 °F 68% 30.23 in 10.0 mi Calm Calm - N/A   Clear
10:15 AM 63.7 °F 52.0 °F 66% 30.23 in 10.0 mi NE 8.1 mph - N/A   Scattered Clouds
10:20 AM 63.1 °F 51.6 °F 66% 30.23 in 10.0 mi NE 5.8 mph - N/A   Scattered Clouds
10:38 AM 64.9 °F 52.5 °F 64% 30.24 in 10.0 mi NE 6.9 mph - N/A   Mostly Cloudy
10:56 AM 65.5 °F 52.0 °F 62% 30.24 in 10.0 mi NE 4.6 mph - N/A   Scattered Clouds
11:15 AM 65.5 °F 51.1 °F 60% 30.25 in 10.0 mi NE 8.1 mph - N/A   Scattered Clouds
11:16 AM 65.5 °F 50.9 °F 59% 30.25 in 10.0 mi NE 4.6 mph - N/A   Scattered Clouds
11:35 AM 65.3 °F 50.7 °F 59% 30.25 in 10.0 mi NE 5.8 mph - N/A   Scattered Clouds
11:36 AM 65.7 °F 51.1 °F 59% 30.25 in 10.0 mi NE 8.1 mph - N/A   Scattered Clouds
11:58 AM 66.0 °F 50.4 °F 57% 30.25 in 10.0 mi NNE 5.8 mph - N/A   Scattered Clouds
12:17 PM 67.8 °F 50.5 °F 54% 30.25 in 10.0 mi ENE 6.9 mph - N/A   Scattered Clouds
12:35 PM 68.5 °F 50.5 °F 53% 30.24 in 10.0 mi ENE 9.2 mph - N/A   Mostly Cloudy
12:55 PM 69.8 °F 49.3 °F 48% 30.24 in 10.0 mi East 10.4 mph - N/A   Mostly Cloudy
12:56 PM 69.6 °F 49.3 °F 48% 30.24 in 10.0 mi East 9.2 mph - N/A   Mostly Cloudy
1:15 PM 69.8 °F 49.5 °F 48% 30.24 in 10.0 mi NE 4.6 mph - N/A   Scattered Clouds
1:20 PM 68.7 °F 49.3 °F 50% 30.24 in 10.0 mi NNE 6.9 mph - N/A   Scattered Clouds
1:38 PM 68.4 °F 48.9 °F 50% 30.23 in 10.0 mi ENE 6.9 mph - N/A   Mostly Cloudy
1:56 PM 68.7 °F 50.4 °F 52% 30.23 in 10.0 mi NE 4.6 mph - N/A   Overcast
2:16 PM 69.8 °F 54.1 °F 57% 30.23 in 10.0 mi North 8.1 mph 16.1 mph N/A   Mostly Cloudy
2:35 PM 68.5 °F 55.4 °F 63% 30.23 in 10.0 mi North 5.8 mph 24.2 mph N/A   Overcast
2:36 PM 68.4 °F 55.4 °F 63% 30.23 in 10.0 mi North 3.5 mph 21.9 mph N/A   Mostly Cloudy
2:59 PM 67.3 °F 54.7 °F 64% 30.23 in 10.0 mi Calm Calm - N/A   Overcast
3:17 PM 66.7 °F 55.0 °F 66% 30.22 in 10.0 mi North 4.6 mph - N/A   Overcast
3:35 PM 70.0 °F 55.9 °F 61% 30.22 in 10.0 mi North 8.1 mph 21.9 mph N/A   Mostly Cloudy
3:55 PM 67.5 °F 54.9 °F 64% 30.22 in 10.0 mi North 6.9 mph 27.6 mph N/A   Mostly Cloudy
4:15 PM 69.4 °F 55.8 °F 62% 30.22 in 10.0 mi NNW 17.3 mph 21.9 mph N/A   Overcast
4:38 PM 67.8 °F 55.2 °F 64% 30.21 in 10.0 mi North 12.7 mph 23.0 mph N/A   Mostly Cloudy
4:56 PM 70.3 °F 55.9 °F 60% 30.21 in 10.0 mi NNW 12.7 mph 20.7 mph N/A   Scattered Clouds
5:15 PM 70.3 °F 55.9 °F 60% 30.21 in 10.0 mi NNW 16.1 mph 26.5 mph N/A   Scattered Clouds
5:16 PM 70.5 °F 55.9 °F 60% 30.21 in 10.0 mi NNW 18.4 mph 26.5 mph N/A   Scattered Clouds
5:35 PM 69.8 °F 55.9 °F 61% 30.22 in 10.0 mi North 9.2 mph 23.0 mph N/A   Clear
5:36 PM 69.8 °F 55.9 °F 61% 30.22 in 10.0 mi North 6.9 mph 23.0 mph N/A   Clear
5:59 PM 69.8 °F 55.8 °F 61% 30.22 in 10.0 mi North 13.8 mph 18.4 mph N/A   Mostly Cloudy
6:17 PM 69.4 °F 54.1 °F 58% 30.22 in 10.0 mi North 12.7 mph 17.3 mph N/A   Mostly Cloudy
6:35 PM 68.5 °F 54.7 °F 61% 30.22 in 10.0 mi NNW 10.4 mph - N/A   Scattered Clouds
6:36 PM 68.7 °F 54.7 °F 61% 30.22 in 10.0 mi NNW 9.2 mph - N/A   Scattered Clouds
6:55 PM 68.2 °F 54.0 °F 60% 30.22 in 10.0 mi North 6.9 mph 16.1 mph N/A   Clear
7:15 PM 67.5 °F 54.1 °F 62% 30.22 in 10.0 mi North 11.5 mph - N/A   Clear
7:38 PM 66.4 °F 53.6 °F 63% 30.22 in 10.0 mi North 8.1 mph - N/A   Clear
7:56 PM 65.5 °F 52.3 °F 62% 30.22 in 10.0 mi North 8.1 mph - N/A   Clear
8:16 PM 64.4 °F 51.1 °F 62% 30.22 in 10.0 mi North 5.8 mph - N/A   Clear
8:35 PM 63.0 °F 50.2 °F 63% 30.22 in 10.0 mi North 4.6 mph - N/A   Clear
8:36 PM 63.0 °F 50.2 °F 63% 30.22 in 10.0 mi North 4.6 mph - N/A   Clear
8:59 PM 62.1 °F 49.3 °F 63% 30.23 in 10.0 mi North 4.6 mph - N/A   Clear
9:16 PM 61.7 °F 48.7 °F 62% 30.23 in 10.0 mi NNE 3.5 mph - N/A   Clear
9:35 PM 61.0 °F 48.2 °F 63% 30.24 in 10.0 mi NNE 4.6 mph - N/A   Clear
9:36 PM 61.0 °F 48.0 °F 62% 30.24 in 10.0 mi North 4.6 mph - N/A   Clear
9:55 PM 60.3 °F 47.5 °F 63% 30.25 in 10.0 mi North 3.5 mph - N/A   Clear
9:56 PM 60.3 °F 47.5 °F 63% 30.25 in 10.0 mi North 3.5 mph - N/A   Clear
10:15 PM 60.1 °F 47.5 °F 63% 30.26 in 10.0 mi NNE 3.5 mph - N/A   Clear
10:38 PM 58.6 °F 47.8 °F 67% 30.26 in 10.0 mi Calm Calm - N/A   Clear
10:56 PM 57.7 °F 48.6 °F 71% 30.26 in 10.0 mi NNE 3.5 mph - N/A   Clear
11:15 PM 57.2 °F 48.7 °F 73% 30.27 in 10.0 mi NE 3.5 mph - N/A   Clear
11:16 PM 57.2 °F 48.7 °F 73% 30.27 in 10.0 mi NE 3.5 mph - N/A   Clear
11:35 PM 56.7 °F 49.1 °F 76% 30.27 in 10.0 mi NE 3.5 mph - N/A   Clear
11:36 PM 56.5 °F 49.1 °F 76% 30.27 in 10.0 mi ENE 3.5 mph - N/A   Clear
11:59 PM 56.3 °F 49.5 °F 78% 30.27 in 10.0 mi NE 3.5 mph - N/A   Clear